Wind_Speed
9 9 7 7 8 7 3 3 2 2 4 2 1 1 2 3 2 1 2 3 1 3 3 2 2 3 1 2 3 4 4 4 4 3 1 5 3 6 17 13 6 10 20 20 24 27 26 26 24 22 20 19 19 19 19 18 17 16 15 14 13 12 12 11 10 9 8 9 9 10 9 9 8 8 8 8 8 7 6 6 7 6 5 5 5 6 5 5 5 4 4 4 4 5 6 6 5
9 7 5 6 7 3 1 3 3 3 6 2 2 2 3 2 1 3 5 4 3 4 3 1 2 3 3 3 2 2 2 4 5 2 3 4 3 8 17 15 8 9 18 20 23 27 27 28 25 23 22 21 20 20 20 18 17 17 16 15 14 12 11 11 11 11 9 9 10 10 10 10 9 8 7 7 7 7 6 6 6 5 4 5 5 6 5 5 3 1 2 2 4 4 5 4 3
9 7 6 5 3 3 1 4 3 1 5 1 4 4 2 2 4 7 7 7 7 5 4 1 2 2 4 5 1 3 2 4 3 2 3 4 3 7 16 15 9 9 16 19 22 26 27 28 26 25 23 22 22 21 20 19 18 17 17 15 14 12 11 11 11 11 11 10 10 11 11 11 10 8 7 6 6 5 5 6 5 4 4 5 5 5 5 4 1 2 3 2 2 4 4 4 3
9 8 8 4 1 3 4 4 2 4 3 3 2 4 2 3 7 7 7 7 7 4 3 0 1 1 3 3 1 1 3 4 3 4 1 5 5 5 14 15 10 11 16 19 21 24 27 28 27 26 24 23 23 23 22 20 19 18 17 15 14 13 12 11 10 11 11 11 10 10 9 9 9 8 6 5 5 4 5 5 6 5 5 5 6 6 5 3 1 3 4 3 3 4 5 4 4
9 7 7 4 2 2 3 3 2 5 3 4 1 4 4 6 6 5 6 7 6 2 0 2 1 2 1 1 2 1 3 2 3 6 3 4 6 5 12 15 11 13 16 18 19 23 26 28 28 27 25 24 24 24 23 22 21 19 18 16 15 14 13 12 11 11 11 11 10 9 8 8 7 7 6 6 5 4 5 6 6 6 5 5 6 5 4 1 2 4 4 3 5 6 7 6 5
7 4 5 6 3 1 2 3 3 1 4 5 3 5 6 6 5 5 5 6 5 2 1 2 1 1 1 2 2 3 3 0 1 5 4 3 6 7 11 14 11 13 16 17 18 21 24 27 28 27 26 25 25 24 24 23 21 20 19 18 16 15 15 13 11 12 12 11 10 9 9 8 7 7 6 6 6 5 6 6 7 7 5 5 6 5 3 1 2 4 3 3 7 6 6 6 5
7 3 4 5 2 2 3 3 4 2 3 5 3 5 6 6 5 2 3 3 3 2 2 1 0 2 0 3 2 3 3 3 2 2 3 4 7 7 11 12 11 14 16 17 17 19 22 25 27 28 27 27 26 24 24 24 22 21 21 19 18 18 17 15 14 13 13 12 11 10 9 8 8 8 7 7 6 5 6 6 7 6 5 5 5 4 3 1 2 2 2 2 7 7 3 4 4
7 3 1 4 2 3 4 2 3 3 1 3 3 5 6 6 4 2 2 1 1 2 2 2 2 2 1 3 2 5 2 5 5 3 4 6 7 7 10 11 11 14 16 17 17 18 20 24 27 28 28 27 26 25 25 24 23 22 21 20 19 19 19 17 16 15 15 13 12 11 10 10 10 9 9 9 7 6 6 7 7 7 6 6 5 4 3 1 1 2 2 3 7 8 5 3 3
5 3 0 3 2 3 3 1 2 3 3 4 3 4 5 4 4 2 1 1 1 2 3 3 1 1 3 4 3 5 3 3 5 4 6 8 8 7 9 10 10 13 15 17 17 17 19 23 26 28 28 28 27 26 25 25 24 22 21 21 20 19 19 18 17 17 17 16 14 12 12 11 11 11 11 10 8 7 7 8 8 8 7 7 6 5 4 3 3 4 5 7 10 10 6 3 3
4 4 1 2 3 3 3 1 2 2 4 4 4 6 4 2 3 1 2 0 1 2 4 2 1 1 2 4 4 3 3 3 2 5 8 8 8 7 8 9 10 11 13 16 17 17 18 21 25 28 29 29 28 27 26 25 25 23 22 21 20 19 20 18 18 18 18 17 16 14 13 13 12 12 12 11 10 8 7 7 8 8 7 6 6 5 5 5 5 7 7 8 11 11 6 3 3
2 4 2 4 4 3 1 2 4 3 5 5 4 6 5 3 1 2 2 0 1 2 2 1 1 1 1 3 4 2 4 4 3 5 7 9 8 8 9 10 10 11 12 14 15 17 17 19 24 27 29 29 28 28 27 26 25 25 23 22 21 20 21 20 19 19 19 18 17 16 15 14 13 13 12 12 11 10 9 8 8 7 6 5 6 6 6 7 8 7 8 11 11 9 5 4 3
2 3 4 4 3 1 2 2 5 5 6 4 2 4 2 2 2 0 1 0 1 3 3 1 1 2 1 4 4 5 7 4 4 4 6 8 7 8 9 11 10 10 12 13 14 16 16 17 21 26 28 28 28 28 27 26 26 26 24 23 22 21 21 21 20 19 19 19 18 17 17 16 14 13 13 13 13 12 10 10 9 8 7 6 6 7 7 7 7 6 9 12 9 5 4 4 4
3 1 4 3 3 3 2 1 4 4 5 3 3 3 1 1 1 4 3 1 1 3 4 5 2 3 1 4 4 6 7 3 4 4 5 6 7 8 9 12 11 10 12 13 14 15 16 16 19 23 27 28 27 27 27 26 26 26 25 24 22 21 20 21 21 20 20 20 19 18 18 17 15 14 13 13 14 13 12 11 10 10 8 7 6 7 6 6 9 10 11 12 9 5 4 4 5
2 3 4 2 1 2 3 0 2 1 1 4 3 4 3 0 2 4 4 3 4 2 2 3 4 2 2 3 5 5 5 4 3 6 5 6 8 8 9 12 13 11 12 14 15 15 16 16 17 21 24 27 28 27 27 27 26 26 26 25 23 21 20 21 21 21 21 20 19 18 18 18 16 14 14 14 15 14 14 12 11 10 8 7 7 7 5 7 12 13 12 13 11 7 5 5 6
3 2 4 3 2 2 3 0 1 4 1 3 2 3 4 1 2 2 2 1 4 4 1 0 3 1 2 1 4 5 5 7 4 7 7 8 8 8 9 11 12 12 13 14 15 16 16 17 18 19 22 26 27 28 27 27 26 26 26 25 24 21 20 21 21 21 21 20 20 19 19 19 17 16 14 14 16 16 15 13 11 10 8 8 8 7 7 9 13 13 12 13 11 9 6 7 6
3 3 5 3 1 1 2 0 2 3 1 4 3 2 3 4 1 1 3 3 3 3 1 2 1 1 3 4 6 5 7 8 5 7 7 8 8 9 10 11 12 13 14 16 16 17 17 17 18 19 22 24 26 28 28 28 27 26 26 25 24 23 21 20 21 21 20 20 20 19 19 18 17 16 15 14 17 17 16 14 11 9 9 9 8 9 9 11 14 14 14 13 11 9 8 8 8
3 4 4 2 1 2 3 3 2 2 4 6 6 3 3 6 3 1 2 1 3 3 2 4 3 1 4 5 6 8 12 9 6 7 8 9 10 10 11 11 13 14 15 16 17 18 18 18 19 20 21 23 25 26 28 28 28 27 26 26 25 24 22 21 21 20 20 19 19 19 18 18 18 17 15 15 17 17 16 15 12 11 11 9 8 10 11 13 16 15 15 14 11 9 8 9 9
4 4 3 0 2 3 4 6 5 3 3 5 4 2 2 4 5 3 3 4 5 5 4 4 4 5 7 10 9 11 13 9 5 5 5 5 5 7 9 9 10 13 14 14 15 17 19 19 19 20 21 22 24 25 27 28 28 28 27 27 26 25 24 22 22 21 20 20 19 19 19 19 19 18 16 15 17 17 16 16 14 12 12 10 10 11 12 14 15 16 15 15 13 10 8 9 9
4 3 2 2 5 4 5 7 5 2 2 5 4 3 2 4 3 2 3 6 7 8 7 1 2 8 9 11 10 12 11 7 5 5 5 6 7 9 11 12 12 13 13 14 15 16 18 19 20 21 21 21 23 25 26 27 28 28 28 27 27 26 25 24 23 22 22 21 20 20 19 19 19 19 18 17 18 18 17 17 15 14 14 12 10 12 13 14 15 16 15 16 14 11 10 11 11
2 3 1 5 6 4 5 6 6 5 3 3 5 2 2 5 4 1 2 6 7 6 7 1 3 7 7 8 10 13 10 9 8 7 7 7 8 8 10 13 14 15 16 16 16 16 19 20 20 21 21 21 22 23 25 26 27 27 27 27 27 27 26 25 25 24 23 22 21 20 20 20 19 19 18 17 19 20 19 18 17 16 16 13 11 13 14 14 15 15 15 16 15 12 11 12 12
1 4 3 5 3 2 5 6 6 6 3 2 3 2 3 5 3 1 1 4 8 7 6 4 6 8 8 8 9 11 12 13 13 13 12 11 11 9 8 8 9 11 13 14 15 16 17 19 21 21 22 22 22 23 24 25 26 26 27 27 27 27 27 26 26 26 25 24 23 22 21 20 21 20 19 19 20 21 21 19 19 17 15 13 11 13 14 15 16 16 17 17 15 12 12 12 12
1 3 5 5 4 2 6 6 5 4 2 1 3 4 5 2 1 2 1 2 7 4 1 1 5 7 6 6 7 11 13 13 15 16 16 15 15 15 14 11 9 6 5 6 10 13 14 16 19 21 22 23 23 23 23 23 24 25 26 26 26 27 27 27 26 26 26 26 25 23 21 21 21 21 20 20 21 22 22 21 21 19 16 13 13 15 15 15 16 17 18 18 16 13 12 13 12
1 4 3 3 4 4 5 2 3 1 2 2 2 4 3 3 4 3 3 8 9 1 6 5 6 7 9 11 9 9 10 10 13 15 15 15 16 17 17 16 14 11 9 7 5 7 10 14 16 17 21 22 23 23 22 22 23 24 24 25 25 25 26 26 26 25 24 25 26 25 23 22 22 22 21 22 23 23 24 23 22 20 17 16 16 15 15 16 17 18 19 20 19 16 14 14 13
2 3 5 3 3 5 6 4 4 1 1 6 2 3 4 3 6 3 4 11 4 5 8 9 11 13 14 12 9 8 9 10 12 13 14 15 14 14 17 18 17 14 12 11 9 6 5 9 13 14 17 20 21 21 21 21 21 21 22 22 23 24 24 25 25 24 23 23 26 26 24 21 22 23 21 22 25 24 25 24 22 20 18 18 17 15 17 18 18 19 20 20 20 18 16 15 14
2 4 4 3 2 6 7 6 7 6 5 5 2 5 7 6 3 2 10 10 5 7 9 10 11 13 12 10 8 8 9 11 13 14 15 17 16 16 18 19 18 17 16 15 13 10 6 3 9 11 12 16 19 19 19 20 20 20 20 21 21 22 23 24 24 23 22 22 23 22 21 21 21 23 21 22 25 24 24 24 22 21 20 19 16 17 20 19 19 20 20 20 21 20 18 17 17
4 5 3 4 5 6 7 7 7 4 4 3 3 9 6 3 2 3 11 4 8 9 9 8 9 11 9 8 8 8 9 12 14 15 16 18 20 21 21 21 20 20 19 18 16 13 9 3 4 7 8 11 15 17 17 17 18 18 18 19 19 20 20 21 21 20 21 22 21 21 23 23 23 24 22 22 25 23 22 23 23 22 20 18 18 20 21 19 20 20 20 20 21 21 20 18 18
4 4 3 5 7 7 5 7 6 2 4 5 6 8 5 2 1 2 5 4 7 10 10 7 9 10 8 8 7 9 10 12 15 15 17 20 23 23 23 22 22 20 19 19 18 16 12 6 3 4 4 6 10 13 15 15 15 15 16 16 17 18 17 18 17 17 19 21 22 23 24 23 22 24 21 22 24 22 22 24 23 21 20 20 21 22 21 20 20 20 20 20 21 21 21 20 19
2 2 4 7 7 7 6 6 6 2 2 5 7 5 3 2 1 5 2 6 7 11 9 8 10 7 8 8 7 9 11 13 16 17 18 19 19 21 21 22 21 19 19 20 19 17 14 9 6 5 4 3 6 10 12 13 13 13 13 13 13 15 15 16 17 17 17 18 20 20 21 20 19 20 19 22 24 23 23 24 23 23 22 22 23 22 21 20 19 19 19 19 20 21 21 20 20
1 1 4 8 8 7 7 3 2 0 1 4 6 2 4 1 6 7 5 7 8 12 8 7 8 6 7 7 6 8 11 15 17 18 17 17 18 19 19 20 20 19 19 19 19 18 17 14 10 7 6 4 2 4 7 8 9 9 8 8 9 10 12 14 15 16 16 16 16 17 18 18 17 17 17 20 21 22 23 23 24 23 23 23 23 22 21 20 19 19 19 19 20 21 21 21 20
1 3 1 5 7 6 7 1 3 3 1 3 3 3 6 5 11 7 3 6 9 10 6 6 6 6 6 6 6 7 11 15 16 18 19 19 19 19 19 19 19 18 18 19 20 21 20 18 16 13 10 8 6 3 1 2 3 3 3 2 3 5 8 10 12 14 15 15 16 16 16 17 17 17 17 18 19 20 21 22 23 24 24 25 24 23 21 21 20 19 19 19 20 21 21 21 21
1 2 2 3 2 5 7 1 0 3 1 1 3 3 6 9 10 5 2 5 10 8 5 6 5 5 5 5 6 6 9 13 15 19 20 21 20 20 20 20 20 19 19 20 21 22 21 21 21 19 16 13 12 10 7 6 5 4 4 4 4 3 3 6 8 11 13 14 15 15 16 16 17 17 17 18 19 20 20 22 23 24 25 24 23 22 21 21 20 20 19 19 20 20 21 21 22
2 1 3 3 2 5 10 4 4 2 2 2 4 2 5 10 7 3 3 5 11 8 5 6 5 6 5 5 6 5 7 12 16 20 21 21 21 21 21 20 21 21 20 20 21 22 22 22 22 21 21 19 17 16 14 13 12 11 11 10 9 7 6 4 2 3 6 9 11 13 14 16 17 19 19 19 20 20 20 20 21 22 23 23 22 21 21 21 20 20 19 18 19 19 20 20 21
3 1 3 3 2 3 8 4 2 1 0 1 1 2 3 7 5 4 5 6 10 8 6 6 5 6 5 5 5 5 5 9 14 19 21 21 20 20 20 21 21 21 21 21 22 22 23 22 21 22 23 22 22 20 19 19 19 19 19 19 18 17 16 14 12 8 5 3 1 3 6 9 12 14 16 18 19 21 21 20 21 22 23 22 22 21 21 20 19 19 18 17 18 18 19 20 20
3 0 2 4 3 3 4 4 3 4 3 0 1 2 5 9 8 5 7 6 9 8 6 6 5 5 5 5 5 5 6 6 9 16 20 20 20 20 20 20 21 21 22 22 23 23 23 23 22 22 22 22 22 22 22 22 22 22 23 23 23 23 24 22 20 18 17 15 12 9 6 3 4 5 7 9 11 14 16 17 19 20 20 21 21 21 20 19 19 18 17 16 17 18 19 19 19
4 3 3 3 2 4 5 4 3 5 4 2 1 4 7 12 10 5 8 5 9 8 6 6 5 5 5 5 5 5 6 6 9 15 18 19 19 19 19 21 21 22 23 23 23 23 23 23 22 22 21 21 21 21 22 22 22 23 23 23 23 24 24 23 23 23 22 21 19 17 14 11 9 8 6 6 5 6 7 9 12 14 15 16 16 17 18 18 18 17 17 17 16 17 18 19 19
7 5 4 4 4 5 6 5 5 2 4 5 5 6 7 11 10 5 7 6 10 7 6 6 4 5 4 5 5 5 6 6 9 15 18 19 19 19 19 20 21 22 24 24 24 24 24 24 23 23 21 20 19 18 19 20 21 22 22 23 24 25 24 23 23 22 22 21 20 19 17 17 14 12 11 9 7 6 6 5 6 7 8 10 11 11 12 13 14 15 16 17 17 17 18 18 18
5 3 3 4 5 6 5 5 5 1 1 6 6 4 7 11 7 5 5 5 8 6 6 6 4 4 4 5 5 5 5 5 10 15 18 19 20 20 21 21 22 24 25 25 26 26 25 25 24 24 23 20 19 19 18 19 20 21 22 24 25 25 23 23 23 22 21 20 19 18 18 17 16 14 14 12 11 9 8 7 6 6 4 4 6 8 9 10 11 12 13 14 15 15 17 17 17
3 2 2 4 5 6 7 6 5 1 4 5 1 2 8 10 4 6 4 6 6 3 6 5 5 5 4 5 5 5 4 5 9 14 18 20 20 21 22 22 23 25 26 26 26 26 26 26 26 25 24 23 23 22 20 21 21 21 23 25 25 25 24 24 25 24 22 21 20 19 18 17 16 16 15 14 13 12 10 9 9 8 7 6 4 5 7 9 10 11 11 12 12 12 14 15 15
3 2 2 4 4 4 7 6 5 0 4 3 1 3 8 7 3 6 5 6 4 3 5 5 4 5 4 4 4 4 4 5 7 10 15 19 20 21 22 22 24 24 25 26 26 26 26 26 26 25 24 24 24 24 23 23 22 21 22 23 23 25 26 25 24 23 22 21 21 21 20 18 17 17 16 15 15 14 13 12 10 9 8 7 6 5 5 6 8 9 9 11 11 11 12 13 14
3 3 3 4 3 1 4 5 5 2 1 2 2 3 6 4 3 5 5 5 5 6 7 6 5 5 4 4 4 5 4 5 5 7 11 15 18 20 21 21 22 24 26 26 26 26 27 26 25 24 24 23 23 23 23 23 22 21 22 22 22 24 24 23 22 22 21 21 22 21 21 20 19 18 17 17 16 16 15 14 13 11 9 8 7 7 7 7 8 9 9 10 10 11 12 13 13
3 5 6 5 4 5 6 4 5 4 3 2 1 3 5 4 3 2 3 4 5 5 6 7 5 4 4 4 5 5 3 4 5 5 8 12 15 17 19 21 23 25 26 26 26 26 26 26 25 23 22 22 21 20 19 18 18 18 18 19 20 22 23 23 24 25 24 23 22 21 20 19 18 18 18 18 17 17 17 16 15 14 13 11 9 9 8 8 8 9 10 10 10 11 12 13 14
4 6 9 9 8 8 6 2 5 4 4 3 2 3 5 4 2 3 3 3 4 3 4 6 4 4 4 4 4 4 3 3 4 5 7 10 13 16 20 22 23 24 24 24 25 25 26 25 24 23 23 21 20 18 17 15 16 17 18 20 22 24 27 27 27 26 25 24 22 20 19 18 18 18 18 18 17 17 17 17 17 16 15 15 13 11 9 8 8 8 9 9 9 10 11 13 15
3 5 8 10 7 6 5 1 2 0 3 3 2 1 5 5 1 4 5 4 4 2 3 4 3 4 4 3 3 3 3 4 4 6 7 10 12 15 18 20 20 21 20 22 24 25 26 26 25 25 24 23 21 20 18 18 20 22 24 26 26 27 28 26 24 23 22 21 19 19 19 18 18 18 18 18 17 17 17 17 17 17 16 16 15 14 13 12 10 9 8 8 8 8 8 10 14
3 4 6 7 6 6 5 5 4 3 2 4 3 2 3 5 3 4 6 6 3 2 3 3 3 3 3 2 2 2 3 3 3 4 6 9 11 13 14 16 17 18 19 22 25 26 27 26 26 26 25 24 23 21 20 20 22 23 24 26 27 27 27 25 24 23 22 21 21 22 21 20 20 19 18 18 17 17 17 17 16 16 17 17 16 16 16 15 12 10 9 8 8 8 8 8 11
5 3 6 6 6 6 4 5 3 1 2 4 4 1 2 6 3 1 3 3 3 5 5 5 4 4 4 3 1 2 2 2 3 3 4 7 9 11 12 14 16 17 20 22 24 25 26 26 27 27 27 26 25 23 23 23 23 24 25 27 28 28 27 27 25 25 26 25 26 27 26 26 25 24 23 22 21 19 18 18 17 17 17 17 17 16 16 16 15 14 12 11 11 10 9 9 10
3 5 7 5 5 5 4 4 3 2 1 4 6 4 2 6 3 3 2 4 6 5 5 5 5 5 4 4 3 2 1 1 2 3 5 7 8 10 11 13 16 17 20 22 23 24 25 26 26 27 28 27 26 25 25 26 25 25 26 27 28 27 26 26 26 27 27 27 28 28 28 28 28 28 28 27 26 24 23 21 20 20 19 18 18 17 17 17 16 16 14 13 13 12 12 11 11
5 6 6 6 5 4 3 2 4 2 3 5 9 9 5 4 4 4 4 3 4 5 5 5 5 5 5 4 4 4 3 2 2 3 5 7 8 10 12 14 15 16 18 21 23 24 24 25 25 27 27 25 25 25 25 26 25 25 26 25 26 25 25 25 26 27 26 26 27 27 27 27 27 27 27 27 27 26 25 24 24 23 23 22 21 20 19 18 17 16 15 14 13 13 13 13 13
5 4 4 3 3 4 4 4 3 1 5 3 5 5 5 5 5 3 4 3 2 5 7 10 9 8 6 5 5 5 4 4 3 3 4 6 8 9 11 13 14 15 18 20 22 23 24 24 25 26 26 25 24 24 24 25 25 25 25 24 25 25 24 25 26 26 25 25 25 25 25 25 25 25 25 26 26 25 24 24 24 24 24 24 23 23 21 20 19 18 17 16 15 14 13 14 14
4 4 5 3 2 3 2 3 0 3 6 3 1 1 2 7 6 4 4 4 4 5 6 10 13 11 8 7 6 5 4 4 4 4 4 5 6 8 9 11 13 15 18 19 21 22 23 23 24 25 26 24 23 23 23 24 24 24 23 23 23 23 24 24 25 25 24 24 23 23 24 24 24 24 24 24 23 22 22 22 22 23 23 23 22 22 22 21 21 20 20 19 18 17 16 15 15
4 5 5 4 2 1 3 3 1 4 5 2 1 2 2 5 3 2 4 5 5 6 6 9 12 12 10 8 7 6 5 5 5 4 4 5 6 7 9 11 13 15 17 19 20 21 22 22 23 25 25 23 22 22 22 22 22 22 21 21 21 21 22 22 22 22 22 22 22 22 23 22 22 22 21 21 20 19 19 19 20 20 20 20 20 20 21 21 21 21 20 20 19 19 18 18 17
3 3 4 4 4 4 4 3 3 4 4 2 2 2 3 3 1 2 4 3 4 3 3 7 9 8 8 7 6 6 6 5 5 4 5 7 8 9 10 12 13 16 17 18 20 20 21 22 22 23 23 21 21 21 20 20 20 19 18 18 18 19 19 20 20 20 20 20 20 20 20 20 20 19 18 18 17 17 17 17 17 17 18 18 18 19 19 19 20 20 20 20 19 19 19 19 18
2 2 3 2 4 4 2 3 5 3 2 3 2 3 4 4 1 1 1 2 4 4 5 8 8 7 6 6 6 6 5 5 5 5 5 8 10 10 11 13 14 16 17 18 18 18 19 20 20 21 21 20 19 19 18 18 17 17 16 16 15 16 16 16 17 17 18 18 18 18 18 18 17 17 17 17 17 17 17 16 16 17 17 17 18 18 18 19 19 19 20 20 20 20 20 19 19
2 2 3 4 3 5 2 2 1 3 2 4 2 3 5 1 1 3 4 4 4 3 4 7 7 7 7 7 7 6 6 6 6 6 6 9 11 12 12 13 14 15 16 17 17 17 17 18 18 19 18 18 17 17 16 16 15 14 14 14 13 13 14 14 15 15 16 16 17 17 17 17 17 17 17 17 17 17 17 17 17 17 17 18 18 18 19 20 20 20 21 21 22 22 22 21 21
5 2 5 3 2 4 3 1 2 1 4 4 1 5 5 2 3 3 3 0 2 3 5 6 7 8 8 8 7 7 7 6 6 6 7 11 13 14 14 14 13 14 15 15 16 15 15 15 15 16 16 15 15 14 14 13 13 13 13 13 13 13 13 13 14 14 14 14 15 15 15 15 16 16 17 17 18 18 18 19 19 20 20 20 21 21 21 21 22 22 22 23 23 23 24 24 24
5 3 3 3 2 1 2 2 2 3 5 4 3 5 5 5 5 1 3 8 8 7 7 7 9 10 8 8 8 8 7 6 6 6 6 10 14 15 15 14 13 13 13 14 14 14 14 13 13 14 14 13 12 11 11 11 10 11 11 12 12 12 12 13 13 13 13 13 13 14 14 14 15 16 16 17 17 18 18 19 20 21 22 23 24 25 26 26 26 26 26 26 25 25 26 27 26
3 1 0 1 2 3 2 2 2 3 5 5 5 5 4 5 6 7 10 12 12 11 10 10 12 11 10 10 9 9 8 7 7 6 6 10 14 16 16 16 14 13 13 13 13 13 13 13 13 13 12 11 11 10 10 9 9 9 9 10 11 12 12 13 13 12 13 13 14 14 14 15 16 16 16 17 17 18 19 20 21 22 22 24 25 26 28 29 30 30 30 29 28 27 28 29 29
2 2 2 2 1 1 1 2 2 3 4 4 5 6 5 4 3 7 8 8 12 15 13 12 11 11 11 11 10 9 8 7 8 7 7 11 15 16 17 16 14 13 13 13 14 14 14 13 12 12 11 11 10 10 10 9 9 8 8 10 11 11 12 12 12 12 13 14 14 15 16 16 16 17 18 19 20 21 22 23 23 24 24 25 26 26 28 29 30 31 31 31 31 30 30 30 30
4 5 6 6 4 2 3 5 2 2 3 4 4 6 6 3 0 2 3 4 9 13 11 10 10 12 12 10 9 8 8 8 9 7 8 12 15 17 18 17 16 15 15 15 15 15 14 14 13 12 12 11 11 10 10 9 9 8 8 9 10 12 13 13 13 13 13 14 14 15 16 16 17 18 20 21 23 24 25 26 26 27 27 28 28 28 29 30 30 31 32 32 33 33 33 33 32
Wind_Direction
332 327 323 311 310 315 319 71 67 324 71 76 322 43 241 212 211 248 298 297 326 263 225 153 135 118 91 153 194 195 175 172 166 120 207 240 285 189 181 180 165 172 182 181 183 188 187 185 186 184 187 190 187 185 187 188 186 187 185 186 185 178 174 175 171 167 166 159 154 151 150 149 147 146 148 150 148 144 143 146 145 137 133 140 137 133 130 125 123 122 110 114 128 130 130 123 117
338 330 330 315 317 339 251 83 84 339 53 72 275 167 258 316 326 222 218 230 217 268 296 179 128 89 67 106 150 120 224 228 187 177 268 257 270 194 183 188 183 176 186 184 184 189 190 188 187 185 188 191 188 189 190 189 188 189 187 186 186 181 177 180 176 173 170 166 162 158 159 158 157 160 159 160 160 157 153 153 159 143 134 151 140 135 130 123 127 88 65 130 160 162 162 155 150
340 332 339 324 319 38 58 49 94 53 70 126 277 241 291 17 230 232 217 224 240 275 307 254 123 115 64 34 63 106 279 269 209 224 287 231 226 203 191 194 191 184 190 188 187 190 193 192 189 188 189 190 189 192 192 191 192 192 191 189 188 185 184 185 179 175 170 168 168 164 165 165 166 170 170 170 172 170 166 167 169 150 153 162 141 136 124 123 140 40 45 70 180 192 201 208 221
339 333 341 352 16 35 58 43 123 114 108 188 282 264 256 190 226 244 237 248 261 294 322 136 69 208 93 19 275 125 289 288 227 196 264 217 205 213 193 193 194 188 190 192 191 192 196 194 192 191 191 191 192 194 192 192 195 195 194 193 191 190 191 192 187 177 172 171 169 168 167 167 169 174 177 177 180 179 184 186 172 159 177 171 144 138 124 117 6 7 20 6 298 250 240 244 255
335 329 345 26 83 38 89 70 106 105 163 184 115 273 246 208 231 256 264 281 274 282 249 113 23 294 91 185 165 144 255 280 252 202 228 232 204 209 192 193 194 188 190 194 194 195 198 197 196 194 193 193 195 197 193 192 196 197 197 196 195 195 196 197 193 183 178 177 173 175 174 173 175 179 183 185 188 183 194 197 177 171 184 169 148 142 130 115 325 326 349 345 303 277 259 261 270
340 337 11 47 86 106 101 91 119 157 216 172 139 258 245 213 223 240 280 302 283 257 148 67 34 350 5 261 194 197 219 305 285 212 231 228 205 203 193 197 194 189 191 195 197 198 200 199 199 197 196 196 198 200 196 196 197 198 200 198 197 198 199 197 193 187 185 183 180 183 184 184 185 190 191 194 197 191 197 194 180 177 177 161 148 146 137 102 338 323 353 326 309 307 259 256 268
355 343 18 54 50 43 90 122 170 227 225 171 173 241 246 228 217 217 321 319 295 346 61 30 347 82 326 305 310 239 232 237 237 227 226 196 205 197 194 204 196 188 191 196 200 201 202 202 201 200 199 199 201 202 199 199 198 201 201 198 198 200 199 198 194 190 188 188 188 191 193 194 194 195 198 201 201 194 186 181 182 174 164 154 147 148 147 121 7 343 10 309 318 342 290 250 257
11 3 30 81 35 29 83 114 212 219 236 227 223 235 248 236 204 137 344 332 250 336 10 318 358 76 290 4 325 261 286 246 247 250 202 184 203 193 195 208 199 190 192 198 201 204 205 205 205 203 202 202 203 203 204 202 200 203 203 198 199 200 198 198 195 190 189 190 193 197 198 200 202 200 202 206 203 192 176 174 178 168 162 160 165 168 165 213 328 311 280 274 306 337 322 260 227
28 26 74 75 72 33 46 27 290 244 273 292 281 254 259 228 192 140 126 327 298 292 310 291 9 41 301 351 284 275 337 265 248 223 182 178 198 196 200 207 206 197 194 200 203 206 207 209 208 206 205 205 205 204 206 206 203 204 204 200 199 199 196 197 198 192 189 191 195 200 203 205 208 207 206 207 204 195 180 177 178 173 175 180 197 200 200 227 257 257 260 272 293 318 309 240 187
37 23 118 67 78 48 18 324 297 261 268 287 285 256 258 225 197 109 116 142 305 306 300 255 81 358 315 315 281 307 343 278 219 186 172 176 192 195 203 205 212 209 202 202 203 207 209 212 211 209 208 207 208 206 208 208 205 206 206 203 201 200 197 198 201 196 190 192 197 201 204 208 215 215 210 205 205 199 187 183 184 184 187 198 222 232 240 259 265 259 265 274 288 302 288 217 180
38 357 92 75 67 69 99 237 287 278 283 303 293 256 234 210 143 43 53 72 292 304 303 85 87 211 21 305 270 297 310 280 197 175 173 179 191 194 202 208 215 217 215 209 204 207 210 214 215 213 211 210 210 209 210 209 207 208 209 206 204 203 198 199 202 199 194 196 201 202 203 209 215 220 216 209 207 202 195 194 195 203 219 232 245 255 266 281 283 275 269 274 289 291 252 202 181
74 344 62 84 114 160 173 211 283 286 308 325 293 282 219 163 82 1 284 25 322 318 279 196 139 157 28 315 271 296 322 294 202 182 182 186 191 193 202 211 218 220 219 217 212 210 211 215 217 217 215 214 213 212 213 213 211 211 213 211 209 208 201 201 202 200 198 200 204 203 205 212 216 221 222 212 208 206 201 202 208 220 240 255 258 258 265 275 271 257 251 266 292 283 218 195 183
100 115 81 84 153 153 150 185 278 302 331 301 220 298 5 123 297 216 187 39 308 332 279 221 146 88 326 285 299 315 341 341 203 202 209 201 196 197 206 211 217 224 219 220 220 216 214 214 217 218 218 217 216 216 217 217 216 215 217 216 215 215 208 205 203 202 203 205 208 205 207 214 217 222 225 216 211 210 205 206 215 226 243 260 262 256 259 253 248 246 245 258 276 267 214 196 188
121 149 105 104 83 117 159 213 315 103 341 283 260 316 338 173 237 186 139 354 279 223 275 209 143 96 274 300 326 309 345 0 225 236 237 212 205 203 208 208 214 224 223 223 225 224 220 217 217 218 219 219 219 219 221 222 221 220 220 220 219 220 215 210 207 206 207 208 209 207 209 216 220 224 226 219 213 212 208 210 218 227 243 255 260 263 260 244 248 254 255 259 264 255 220 204 197
125 130 87 109 21 24 176 330 31 113 96 284 299 333 349 321 148 126 156 247 267 220 275 334 133 217 231 250 284 264 326 346 274 253 240 219 214 208 209 207 212 219 224 228 230 231 228 225 220 218 219 220 221 221 222 224 225 224 223 223 223 223 221 217 215 213 213 213 211 210 213 219 223 228 231 223 216 213 212 216 221 230 248 256 263 267 253 240 248 255 259 264 262 246 223 208 203
113 107 68 83 47 57 173 178 89 87 290 255 285 341 5 305 141 55 244 167 286 302 6 252 174 290 197 189 247 275 330 333 294 262 237 229 224 214 214 211 215 219 223 228 231 233 232 231 228 223 220 220 222 223 224 225 227 227 227 227 226 226 225 223 222 220 219 217 214 214 218 223 227 232 236 229 220 217 219 222 224 236 254 259 266 264 249 242 250 256 261 269 262 239 221 211 207
66 75 68 57 144 171 187 193 149 115 269 275 317 26 78 304 298 296 270 83 304 307 342 260 262 284 200 219 264 305 322 314 283 251 231 230 229 224 224 221 223 225 226 229 231 234 234 234 233 229 226 224 224 225 226 227 228 229 229 230 230 229 229 228 226 224 223 221 218 219 221 226 231 235 238 232 225 224 227 226 227 242 252 257 267 266 257 250 255 259 263 271 262 238 224 215 211
52 78 93 1 189 187 179 186 189 150 270 273 320 25 126 289 301 321 322 338 327 316 298 254 289 291 258 271 288 311 318 310 287 265 251 253 262 261 260 257 250 246 241 236 234 235 237 239 238 235 232 229 227 227 227 228 228 229 229 231 232 232 231 230 230 228 227 225 223 223 224 228 232 237 239 235 230 229 232 231 232 242 244 250 267 271 265 256 259 263 265 270 260 238 225 218 215
77 116 89 249 203 207 196 183 191 174 247 252 292 318 222 239 262 350 311 290 331 330 303 184 306 299 291 293 309 327 336 347 343 340 339 335 327 312 303 298 282 272 264 256 248 241 240 242 241 240 238 234 231 230 230 229 229 228 229 231 232 233 233 232 232 231 230 230 229 228 228 231 234 238 239 236 233 233 233 233 234 241 244 251 265 271 266 258 262 268 268 270 260 237 225 221 216
135 120 78 247 212 235 236 200 209 219 214 253 291 299 201 240 243 331 283 287 321 306 284 294 314 311 309 307 330 340 359 29 24 23 12 357 346 327 315 309 296 288 279 273 269 258 251 246 244 243 242 240 236 234 233 232 230 229 229 230 233 234 235 233 232 233 233 232 231 232 234 235 237 239 240 238 236 234 232 232 234 238 247 257 264 264 263 259 263 269 266 270 265 241 226 224 219
149 133 182 227 187 243 246 209 219 231 196 215 283 349 302 261 211 232 301 331 316 280 252 239 281 313 315 315 350 12 37 45 40 42 37 29 24 17 3 341 318 299 284 275 272 269 262 255 252 247 243 242 241 238 236 234 232 231 230 230 232 234 235 235 234 235 236 237 235 235 237 239 241 240 240 239 237 235 234 236 236 236 243 255 261 258 260 259 261 265 264 270 273 248 226 225 222
148 220 206 197 159 244 257 199 197 213 171 244 321 327 296 278 155 230 179 297 274 275 358 266 294 322 341 0 25 40 46 42 37 36 31 28 25 22 19 16 11 356 326 290 269 264 258 254 256 252 247 243 242 243 240 239 236 234 233 230 231 233 235 235 236 234 234 237 237 238 240 242 243 242 241 241 238 236 235 237 237 235 240 253 260 256 258 258 257 262 266 270 275 260 233 225 223
195 275 277 230 183 235 276 218 199 152 78 288 294 294 297 10 307 246 185 237 241 343 38 45 29 40 59 55 47 41 38 35 34 30 26 23 19 16 15 16 17 18 20 9 328 277 254 245 246 248 247 244 241 242 243 243 241 240 238 234 233 234 236 237 238 237 234 234 234 239 244 243 242 242 242 242 240 238 237 237 236 235 242 254 255 253 258 260 257 260 265 267 272 269 247 231 226
146 264 307 278 198 222 270 305 291 332 302 257 244 297 292 279 285 329 265 257 267 41 59 76 66 61 63 59 48 40 35 28 27 26 27 24 18 16 17 18 18 19 21 18 12 354 292 243 234 235 241 244 242 240 242 244 245 245 243 240 237 235 237 238 239 239 238 237 234 232 235 239 242 243 243 242 240 239 237 233 233 237 245 247 246 256 264 261 259 259 263 265 267 269 258 242 233
169 228 283 290 247 247 277 305 292 296 273 243 200 270 264 231 231 333 268 273 43 71 77 76 71 60 57 55 43 36 33 25 19 18 20 21 21 24 24 22 22 23 21 18 16 14 0 262 224 225 231 240 242 240 242 244 246 247 246 245 243 240 239 240 240 238 238 239 234 229 236 243 243 243 244 244 240 237 237 234 234 238 241 240 245 260 261 258 261 261 261 263 264 266 264 252 242
213 208 262 294 299 292 301 294 275 272 254 210 231 274 282 243 193 251 264 289 73 82 70 61 67 61 52 49 40 34 32 23 15 12 14 18 22 23 21 21 22 23 20 20 23 23 20 15 199 208 216 232 241 240 241 243 246 250 250 250 249 248 248 248 246 242 240 242 242 243 250 253 247 244 245 246 242 236 239 240 238 236 237 243 255 260 256 257 262 262 262 264 264 265 265 259 252
202 199 260 268 284 294 280 267 268 254 247 219 226 271 302 326 296 253 297 36 89 78 58 48 62 59 48 44 36 34 34 25 16 18 17 17 19 15 13 17 20 22 22 26 28 30 32 38 108 155 177 212 237 241 242 243 246 251 255 256 255 255 256 256 253 249 245 245 249 252 256 258 255 250 245 245 245 244 246 243 239 237 241 250 256 255 253 256 260 263 264 265 266 265 265 263 259
175 219 302 287 299 294 251 256 279 291 270 204 185 252 303 31 278 219 72 51 81 80 62 46 57 53 45 41 31 32 29 24 22 26 23 14 12 9 11 15 16 22 28 30 31 36 41 49 75 107 129 167 227 241 244 244 246 250 255 259 261 261 259 256 254 254 253 252 254 255 259 261 258 253 246 243 243 245 247 244 241 242 247 254 254 252 252 254 257 260 262 263 264 263 261 262 262
157 42 326 300 341 323 275 278 298 34 238 186 155 278 304 153 234 227 95 71 76 79 68 51 57 48 44 37 32 34 23 22 23 24 19 13 14 13 16 18 19 27 33 38 41 45 48 53 66 83 102 120 171 234 248 249 250 251 254 261 266 266 265 261 258 260 263 263 262 261 263 263 260 257 249 246 246 245 246 246 246 247 253 257 254 250 250 252 253 255 259 262 262 260 259 259 261
287 32 24 303 355 325 283 46 27 348 256 185 139 275 283 254 245 257 68 100 86 72 66 60 59 49 46 36 35 34 23 23 21 18 15 14 17 17 20 24 28 32 39 48 52 54 56 60 67 72 82 92 98 108 171 230 241 240 236 235 242 256 260 261 262 263 263 262 263 264 266 267 267 265 258 253 251 251 251 252 254 257 259 257 252 249 249 250 251 253 258 260 261 260 259 258 259
321 348 26 347 352 283 293 345 14 332 326 135 115 222 264 272 268 300 357 115 96 83 76 64 58 53 47 38 38 31 25 24 20 18 17 18 19 22 24 28 34 38 44 52 56 61 65 68 71 74 77 81 85 91 99 109 118 127 130 131 142 177 218 241 253 259 259 258 259 258 257 257 260 261 262 261 256 254 254 256 258 261 260 256 252 250 248 248 248 251 256 260 262 260 259 260 260
34 282 309 338 196 266 310 305 191 212 321 85 121 203 272 277 282 0 17 89 94 100 92 67 63 57 46 42 37 29 23 22 23 21 19 22 23 25 28 31 38 42 46 52 59 66 70 73 76 78 78 80 84 88 94 100 105 106 103 102 107 116 123 132 163 248 261 265 265 263 258 254 254 253 254 257 259 259 260 262 265 265 263 259 254 250 247 246 246 249 254 260 263 262 261 262 264
355 179 244 270 199 273 318 316 235 206 21 56 130 224 281 279 278 34 39 72 92 103 99 76 68 57 48 45 34 33 22 17 21 17 18 23 26 30 34 37 42 46 51 56 61 65 69 73 77 80 80 82 85 90 94 96 98 98 95 94 92 91 91 89 89 91 84 64 353 303 286 273 267 260 255 252 250 250 253 257 261 264 262 259 255 250 247 247 248 251 255 260 263 264 264 266 268
308 40 218 244 207 238 297 307 324 40 86 173 323 239 255 274 281 7 27 68 96 101 100 84 73 62 53 48 39 33 26 23 17 10 16 24 30 37 41 45 49 54 57 60 64 66 68 71 75 79 83 86 88 91 93 95 96 95 93 91 89 86 83 81 81 80 76 72 70 64 51 16 333 309 289 272 256 251 250 249 252 256 257 256 253 249 246 247 249 250 254 259 262 262 265 268 271
206 201 201 255 251 234 255 269 299 25 26 293 280 254 261 275 283 7 25 59 95 99 99 88 75 69 57 49 46 33 28 29 16 12 20 27 33 39 44 50 53 57 62 64 67 70 71 72 74 79 82 87 92 95 96 97 97 95 93 91 87 83 80 78 76 73 70 68 66 63 61 58 46 32 14 351 323 297 285 271 263 260 255 248 245 243 242 245 248 251 257 259 258 259 263 266 269
180 192 172 199 245 250 243 249 260 354 349 287 251 248 259 270 280 13 22 53 92 99 94 84 74 71 64 56 47 35 36 25 14 21 28 32 35 39 45 51 54 59 64 66 69 70 70 71 74 75 77 83 92 98 99 98 96 93 91 88 84 80 79 78 75 71 68 65 63 60 56 53 50 47 44 36 30 18 1 343 317 296 274 256 249 246 245 248 249 254 258 258 256 256 259 261 262
144 141 152 204 233 264 267 258 267 151 185 272 247 243 268 266 283 7 18 64 83 92 93 86 78 73 61 61 50 37 38 20 23 31 34 36 38 42 46 49 54 60 62 64 66 66 67 69 72 72 73 78 82 85 89 90 90 90 89 87 84 80 78 77 74 71 69 66 63 60 56 51 47 45 43 41 41 39 38 34 27 18 356 307 280 271 272 274 268 265 264 264 263 260 259 260 261
106 144 222 265 241 256 266 255 283 184 178 264 236 191 270 267 301 6 25 70 66 83 106 101 93 86 65 61 51 35 27 12 28 33 33 36 38 42 45 47 51 55 57 61 63 65 68 71 71 72 75 78 78 78 81 82 84 89 90 89 87 82 78 76 74 71 70 69 66 62 59 55 49 46 42 40 40 38 37 35 33 34 34 26 357 315 300 298 294 290 288 286 279 271 268 267 266
102 122 190 265 249 277 284 276 313 25 174 259 212 186 261 274 27 27 37 75 66 63 92 98 98 91 70 61 51 39 29 16 26 27 28 33 36 41 44 45 50 54 57 61 64 67 70 71 71 74 76 78 80 81 82 82 85 89 91 91 90 86 81 79 78 75 74 72 68 64 61 57 53 51 47 42 40 37 34 31 30 27 26 29 27 16 358 340 329 321 315 305 293 285 281 277 274
130 144 166 245 251 310 279 286 332 0 166 266 226 231 273 275 69 49 44 78 85 72 77 76 75 85 79 72 60 47 35 22 25 25 25 31 37 40 42 44 49 53 55 58 61 64 66 69 72 75 76 78 80 83 85 88 90 91 92 92 93 91 87 86 82 75 71 69 66 62 59 56 55 55 52 49 47 44 41 37 32 27 24 24 22 24 25 18 7 356 345 329 309 295 286 284 282
233 203 196 225 237 217 228 280 334 337 355 0 311 307 293 254 219 114 72 76 82 76 81 74 59 68 73 66 57 45 33 25 31 30 23 29 37 40 44 48 51 53 53 56 60 63 67 71 74 76 78 78 79 82 85 91 93 94 97 96 94 90 82 76 70 64 62 61 59 57 54 52 51 51 51 51 51 51 49 46 42 36 33 28 24 26 28 28 22 11 359 347 331 311 294 289 288
274 234 205 211 224 226 234 325 6 359 343 347 21 321 293 291 264 162 144 96 78 61 75 86 73 60 62 61 52 34 27 29 38 42 33 34 41 46 49 51 54 55 56 61 66 70 73 75 77 79 80 79 79 79 82 86 87 85 86 83 79 74 67 62 61 60 60 60 58 56 53 49 47 46 46 47 48 50 50 49 46 43 40 37 33 30 29 29 24 18 10 359 351 335 310 295 289
276 244 198 201 208 217 229 177 90 93 259 293 51 194 272 304 292 176 164 123 100 87 82 98 97 77 77 73 59 34 25 26 34 41 39 41 45 49 51 53 57 60 63 70 75 77 78 79 79 80 79 79 79 79 80 80 79 77 77 75 73 72 70 67 67 68 66 66 63 58 53 48 44 42 42 42 44 46 46 46 44 41 39 37 33 30 29 28 25 22 16 9 6 358 337 312 300
241 237 154 160 175 193 199 163 167 220 256 320 7 123 264 287 262 196 155 124 119 149 127 128 129 115 113 98 68 50 33 29 42 39 36 44 50 55 58 62 67 70 73 77 79 80 81 82 82 81 80 80 79 79 79 78 79 79 79 79 78 77 77 76 76 75 74 73 71 66 61 56 51 47 45 42 41 41 41 40 37 35 33 29 25 23 21 18 17 17 13 12 8 5 1 340 321
244 202 123 132 150 158 139 127 160 303 36 306 293 138 254 272 260 177 146 151 220 205 181 179 165 156 149 136 114 57 29 23 58 61 48 51 58 65 70 73 77 80 81 82 83 84 86 86 86 85 83 82 81 82 81 81 83 84 85 85 84 83 83 83 83 80 78 77 75 72 69 65 62 59 55 51 47 43 40 36 32 28 26 22 17 15 13 9 8 7 6 8 6 4 6 357 343
212 129 97 72 78 89 85 104 116 41 15 240 232 177 216 272 242 159 199 255 237 199 182 194 178 174 175 160 163 151 109 55 67 77 74 70 73 77 82 83 82 84 87 89 90 90 90 90 89 87 84 84 84 85 86 86 87 87 88 89 88 88 87 86 85 81 78 76 74 72 69 67 64 61 59 56 54 51 47 44 40 36 32 28 23 19 15 13 11 9 7 5 2 0 358 357 353
135 107 72 46 31 43 48 56 87 52 286 221 203 188 184 263 267 191 197 228 198 163 167 193 181 179 188 181 184 187 174 162 120 88 86 87 88 89 92 91 88 90 93 95 94 94 93 92 91 89 87 87 87 86 87 86 85 85 85 86 87 86 85 84 81 78 75 74 72 70 68 66 63 61 59 56 54 52 50 48 46 44 42 39 35 31 26 22 18 14 11 7 3 1 356 353 348
105 89 79 73 341 7 25 356 50 139 256 235 213 196 178 233 262 228 223 245 196 179 179 181 178 182 188 185 191 198 190 180 166 131 112 104 99 97 98 97 97 98 97 97 97 98 97 96 96 94 90 89 89 87 86 85 84 84 83 83 82 81 80 79 77 75 72 71 70 68 66 63 61 59 56 53 51 48 46 45 43 42 40 39 38 36 33 29 26 22 19 16 12 8 0 353 347
83 96 102 100 330 349 348 307 104 224 251 253 239 156 201 242 244 212 235 272 265 241 208 180 175 177 180 185 191 192 193 189 177 168 148 127 117 110 107 106 106 104 102 103 103 103 102 101 100 97 93 92 92 90 89 87 86 84 83 82 81 79 77 75 75 73 70 69 67 65 63 59 57 55 52 51 48 45 43 41 38 36 35 34 32 32 31 29 28 26 24 21 18 15 9 2 357
145 148 137 130 131 168 261 268 269 267 271 270 212 180 247 275 270 192 231 267 273 264 233 185 171 172 175 180 186 186 191 194 186 182 173 155 145 134 124 120 116 113 112 111 110 109 107 105 103 101 98 97 95 93 91 90 88 86 84 82 80 78 76 74 72 70 69 67 65 63 60 58 55 53 51 49 47 45 43 40 37 34 31 29 26 24 23 22 21 20 20 18 16 15 12 8 4
184 166 136 149 156 171 215 221 213 255 284 292 231 180 202 232 246 223 234 271 304 297 181 153 153 164 168 172 183 187 189 194 192 186 185 174 158 145 137 131 126 123 121 119 117 115 112 109 108 106 104 102 99 97 95 92 90 88 85 83 79 76 73 71 68 66 65 64 62 61 59 56 53 51 48 47 45 43 42 39 35 32 29 26 22 19 16 14 13 11 10 10 8 7 6 4 1
217 119 105 170 183 164 192 203 176 179 297 285 208 212 225 195 157 345 1 32 24 38 106 132 148 161 161 176 191 191 190 193 193 188 190 182 166 155 147 140 133 129 127 125 123 122 119 116 114 112 109 108 105 102 98 95 93 90 86 82 79 76 73 69 65 61 58 57 57 56 54 51 49 46 44 43 40 37 34 32 29 25 23 19 15 13 9 6 4 2 360 359 357 356 355 354 351
164 129 188 224 184 134 120 271 133 103 259 261 196 241 282 308 35 10 37 54 52 72 128 146 161 167 173 191 196 193 195 195 196 195 191 183 173 166 159 149 140 136 133 131 129 127 125 123 122 119 116 115 111 107 104 100 96 92 86 80 77 74 69 63 59 55 52 50 49 48 45 42 39 36 34 33 30 27 24 20 18 14 11 9 6 3 359 356 354 353 351 349 348 346 343 343 342
125 178 215 199 117 97 99 248 336 42 243 266 238 233 260 259 254 343 26 173 184 181 179 170 178 185 189 199 200 201 202 201 206 202 193 186 179 173 168 160 148 142 139 136 134 132 130 128 128 125 123 121 118 115 112 107 100 92 85 80 74 68 64 57 53 50 46 44 43 41 37 33 30 27 24 22 18 15 12 8 5 2 359 357 354 352 350 347 345 343 342 341 340 338 335 333 333
131 195 204 119 148 200 115 177 227 235 236 269 273 246 244 224 219 204 209 215 203 194 193 189 193 194 197 203 206 209 209 208 210 204 197 192 187 182 176 170 160 152 147 143 141 140 136 134 133 131 130 128 127 127 122 115 105 93 85 80 73 67 62 55 51 47 43 42 39 36 32 28 23 20 17 14 9 5 1 358 355 352 349 347 346 345 344 343 342 341 339 337 336 334 331 328 327
103 150 25 72 178 185 164 174 188 215 230 249 256 248 254 243 203 177 201 206 188 184 193 198 198 196 198 202 202 206 207 206 205 200 200 196 191 188 181 177 173 167 160 152 148 147 145 144 143 141 141 139 139 139 134 126 116 102 90 80 70 63 57 51 48 45 41 38 34 27 24 21 16 11 8 5 0 356 352 348 346 343 341 339 338 339 339 339 339 339 339 338 337 335 331 327 325
154 164 202 233 210 161 246 231 144 163 201 223 243 246 254 264 195 179 209 207 184 185 190 194 197 198 204 206 203 204 204 205 207 201 197 195 193 191 186 184 182 176 173 167 161 156 153 154 155 154 154 154 153 149 143 134 124 108 91 77 65 56 51 44 40 37 33 30 24 18 15 11 7 3 359 355 351 349 346 343 340 339 337 335 333 333 334 333 332 332 332 334 334 333 331 328 325
176 191 204 201 188 177 243 248 201 162 192 192 225 256 257 264 213 191 225 205 187 189 187 186 195 201 206 211 208 206 206 210 209 201 194 192 192 192 189 188 186 183 183 181 178 174 169 166 165 165 165 162 158 152 145 136 123 106 87 73 60 47 39 32 28 25 21 19 14 9 5 0 357 354 351 348 345 344 342 340 338 336 335 333 332 332 333 332 331 330 328 329 330 330 328 326 324
Height
808 808 807 807 806 806 808 809 821 828 829 841 845 841 832 826 828 825 823 821 820 816 812 813 812 813 815 816 817 816 816 817 818 824 825 809 799 801 801 802 803 803 804 805 806 809 811 813 815 816 818 819 820 820 821 822 823 823 824 825 826 826 827 828 829 830 831 832 833 834 834 835 836 836 836 837 837 837 838 838 838 838 838 838 838 838 838 839 839 839 839 839 839 839 839 839 839
808 808 807 806 806 805 812 814 826 837 835 845 845 840 831 826 828 823 822 821 818 814 812 813 812 813 814 813 814 816 815 811 810 812 808 801 801 801 800 802 802 803 804 805 806 808 810 812 814 816 817 818 820 820 821 822 823 823 824 825 826 827 827 828 829 830 830 831 832 833 834 835 836 836 837 837 837 837 838 838 838 839 839 839 839 839 839 839 840 840 840 839 839 839 839 839 839
807 807 806 805 806 806 814 815 828 842 841 846 841 833 830 826 825 822 820 817 814 813 813 812 812 812 812 815 814 816 814 808 807 807 804 802 802 800 800 802 802 804 804 805 806 807 809 811 813 815 816 817 819 820 821 822 823 824 824 825 826 827 828 829 829 830 830 831 832 833 834 835 836 836 837 837 837 838 838 838 838 839 839 839 839 839 840 840 840 840 840 840 840 840 839 839 839
808 807 806 805 808 810 815 821 831 839 843 851 841 827 826 825 822 820 818 815 814 814 813 812 812 810 811 816 814 815 813 806 805 804 803 801 800 800 800 802 803 804 804 805 806 807 809 810 812 814 816 817 818 819 821 822 823 824 825 826 827 828 828 829 830 830 831 832 832 833 834 835 835 836 836 837 837 838 838 838 839 839 839 840 840 840 840 841 841 841 841 840 840 840 840 840 839
808 807 806 805 811 815 820 832 839 837 838 845 836 825 823 823 821 818 817 815 814 814 812 813 814 811 810 813 812 813 810 805 803 801 802 800 800 800 801 802 803 804 805 806 806 807 808 810 812 813 815 816 818 819 820 821 822 824 825 826 827 828 829 830 830 831 832 832 833 834 834 835 835 836 836 837 837 837 838 838 839 839 839 840 840 841 841 841 841 841 841 841 840 840 840 840 840
808 807 807 805 812 816 822 834 837 833 830 832 827 823 821 820 820 819 817 815 813 814 813 813 814 813 812 810 808 808 805 804 803 801 801 800 800 801 801 802 803 804 805 806 807 807 808 810 811 813 815 816 817 818 820 821 822 823 824 825 826 827 828 830 830 831 832 833 833 834 835 835 836 836 837 837 837 838 838 838 839 839 840 840 841 841 842 842 842 842 842 841 840 840 839 839 839
808 808 810 811 817 820 826 834 835 833 828 829 825 820 819 818 821 819 818 817 814 814 814 814 813 814 815 812 809 804 801 803 801 801 801 800 801 801 802 802 803 804 805 806 807 807 808 810 811 813 814 815 817 818 819 820 822 822 823 824 825 826 827 829 830 831 832 833 833 834 835 835 836 836 837 837 837 838 838 839 839 840 840 841 842 842 842 842 842 842 842 841 840 840 839 839 839
808 811 816 817 825 830 834 838 838 836 831 830 827 821 819 817 820 820 819 819 817 815 815 814 813 816 817 814 813 804 800 802 800 801 801 801 801 801 802 802 803 804 805 806 807 808 809 810 811 812 813 815 816 817 819 820 821 822 823 824 824 825 826 827 828 830 831 832 833 834 834 835 835 836 836 837 837 838 838 839 839 840 840 841 842 842 843 843 843 843 842 841 841 841 840 840 839
808 812 819 821 830 837 839 842 840 837 831 829 826 821 819 819 821 820 819 819 818 817 815 815 813 817 817 815 812 804 801 801 800 801 801 801 802 802 802 803 804 804 806 806 807 808 809 810 810 812 813 814 815 817 818 819 821 821 822 823 824 825 826 827 828 829 830 831 832 833 834 835 835 836 836 837 837 838 838 839 840 840 841 841 842 842 843 843 843 843 842 841 841 841 841 840 840
812 814 821 826 832 839 842 843 839 835 830 828 825 820 818 820 821 819 819 818 818 817 815 815 814 816 817 814 811 804 802 801 800 801 801 802 802 802 803 803 804 805 806 807 808 808 809 810 811 812 812 813 815 816 817 819 820 821 822 823 824 825 826 827 827 829 829 831 831 832 833 834 835 835 836 837 837 838 839 839 840 840 841 841 842 842 843 843 843 843 842 841 841 841 841 841 840
817 820 824 829 834 839 842 841 836 832 830 829 824 818 819 820 819 818 818 819 819 817 814 815 815 815 816 815 810 803 801 802 801 802 802 802 803 803 804 804 805 805 806 807 808 809 810 810 811 812 813 813 814 815 817 818 819 820 821 822 824 824 826 826 827 828 829 830 831 832 833 834 834 835 836 837 837 838 839 839 840 840 841 841 842 842 843 843 843 843 842 841 841 841 841 841 841
819 827 826 830 838 841 844 842 835 832 831 829 822 817 819 819 818 818 819 819 819 817 814 814 814 814 817 816 809 803 801 802 802 803 803 803 804 804 804 805 805 806 807 807 808 809 810 811 812 812 813 814 815 816 817 818 819 820 821 822 823 824 825 826 827 828 829 830 831 832 833 833 834 835 835 836 837 838 838 839 840 840 841 841 842 842 842 842 842 842 842 841 841 841 841 841 841
822 831 826 832 846 847 847 844 838 836 831 826 822 819 820 819 818 818 819 819 819 819 814 812 812 813 817 816 808 804 802 802 802 803 803 804 804 804 805 805 805 806 807 808 808 809 810 810 811 812 814 815 816 817 818 818 819 820 821 822 823 824 826 827 828 829 829 830 831 832 833 833 834 835 835 836 837 837 838 839 840 840 841 841 842 842 842 843 842 841 841 841 842 842 841 841 841
822 829 826 836 852 850 845 842 838 837 831 825 822 820 819 818 819 818 819 819 819 817 813 810 811 814 817 815 810 806 804 803 803 803 803 804 804 805 805 805 806 806 807 807 808 809 809 810 811 812 813 814 815 817 818 818 819 820 821 822 823 824 826 827 828 829 829 831 831 832 833 833 834 835 835 836 837 837 838 839 839 840 841 841 842 842 842 843 841 841 842 841 842 842 841 841 841
822 828 829 837 848 846 842 841 840 836 830 825 823 821 819 818 818 818 817 819 817 813 812 810 810 814 816 815 812 807 804 803 803 803 803 804 804 805 805 805 806 806 806 807 808 808 809 809 810 811 811 813 814 815 817 818 819 820 821 822 823 824 826 827 828 829 830 831 832 833 833 834 834 835 836 836 837 837 838 839 839 841 841 842 842 842 843 843 841 841 842 841 842 842 842 842 842
822 826 832 837 843 844 840 841 844 839 830 825 823 822 820 818 817 817 815 816 815 812 812 811 810 812 812 812 809 805 804 803 803 803 803 804 804 804 805 805 805 805 806 806 806 807 808 809 809 810 811 812 813 814 816 817 818 820 821 822 823 824 826 826 827 829 830 831 832 833 834 834 835 835 836 837 837 838 838 839 840 841 842 842 843 843 843 843 842 842 842 842 842 842 842 842 842
822 825 833 837 842 843 838 840 841 836 829 824 823 821 822 820 817 815 814 813 814 813 813 812 809 809 809 808 805 803 804 803 803 803 803 803 803 804 804 804 804 804 805 805 806 806 807 808 809 810 810 811 812 813 815 816 817 819 820 821 823 824 825 826 827 828 829 830 831 832 833 834 835 835 836 837 837 838 839 840 840 841 842 843 843 843 843 843 842 842 842 842 842 842 843 842 842
823 832 837 838 843 839 833 833 832 831 828 824 823 823 824 822 819 815 814 814 814 814 812 812 810 808 806 805 804 804 803 803 804 804 804 805 805 805 805 805 805 805 805 806 807 807 807 808 808 809 810 811 812 813 814 815 816 818 819 821 822 823 824 826 827 828 829 830 831 832 833 833 834 835 836 837 837 838 839 840 841 841 842 842 843 843 843 843 842 842 842 842 842 843 843 843 843
828 838 839 837 839 834 828 828 826 828 827 824 824 824 824 823 821 818 818 818 816 815 811 811 811 808 806 805 805 805 804 805 805 806 806 807 807 807 806 806 806 806 806 806 807 808 808 808 808 809 809 810 811 812 813 814 815 817 818 820 821 822 823 825 826 827 828 829 830 831 832 833 833 834 835 836 837 838 839 840 841 841 841 842 843 843 843 842 842 842 842 842 842 843 843 843 843
831 837 837 834 832 830 828 826 824 825 825 824 824 825 825 822 821 820 820 820 818 817 813 811 811 809 808 807 806 805 805 805 805 806 806 806 807 807 807 806 805 805 805 805 806 806 807 807 807 808 809 810 810 811 812 813 815 816 818 819 820 822 823 824 825 826 827 828 829 830 831 832 833 834 834 835 836 837 838 839 840 840 841 841 843 843 843 843 842 842 842 842 842 843 843 843 843
832 834 832 830 832 830 825 824 825 824 825 825 825 826 825 820 821 820 820 822 819 815 812 812 811 810 810 808 808 807 806 806 806 806 806 807 807 806 806 806 805 804 803 803 803 804 805 805 806 807 808 809 809 810 811 812 813 815 816 818 819 820 822 823 824 825 826 827 828 829 831 832 832 833 834 835 835 836 837 838 839 840 840 841 842 843 843 843 842 842 842 842 843 843 843 843 843
830 830 827 828 832 829 821 823 825 825 826 825 824 824 822 819 821 819 819 823 818 811 811 813 812 812 811 810 811 810 809 809 809 809 809 809 808 807 806 805 804 802 801 801 801 801 802 803 803 804 805 806 808 808 809 811 812 813 814 817 818 819 820 822 823 824 825 826 828 829 830 831 832 832 833 834 835 835 836 837 838 839 840 841 842 843 843 843 843 842 842 842 843 843 843 843 843
830 829 827 828 830 827 821 822 824 825 825 824 823 822 820 820 820 818 819 817 812 809 812 813 813 814 813 813 813 813 813 813 812 812 812 811 810 809 808 806 805 803 802 801 800 799 799 799 800 801 802 803 805 807 809 810 811 812 813 815 817 818 819 820 822 822 823 824 826 828 829 830 831 832 832 833 834 834 835 836 837 838 839 841 841 842 843 843 843 842 842 842 843 843 844 843 843
832 831 828 828 829 827 822 822 823 824 824 822 824 822 820 820 819 819 815 809 808 812 814 814 815 816 815 815 816 816 816 816 816 815 815 813 812 811 809 807 806 804 802 801 800 798 797 797 797 798 799 801 803 805 807 808 810 811 813 814 816 817 819 820 821 821 822 823 824 825 827 829 830 831 832 833 833 834 834 834 836 837 838 840 840 842 842 842 842 842 842 842 842 843 843 843 843
832 831 829 828 828 825 823 823 821 822 823 822 824 821 818 819 819 818 810 805 811 814 814 816 817 817 817 818 819 819 818 817 817 816 815 814 813 811 809 808 806 804 802 801 800 798 797 796 796 797 798 800 802 804 805 807 809 810 812 813 814 816 817 819 820 821 822 823 823 824 826 828 830 830 831 832 832 832 834 834 835 836 837 839 840 841 841 841 841 841 842 842 842 842 843 843 843
831 830 829 827 826 824 822 821 819 821 821 820 821 818 816 818 819 815 806 807 813 814 816 819 819 820 821 822 822 821 820 820 818 817 816 815 813 811 810 808 806 804 803 802 800 798 797 796 796 796 797 799 801 803 804 806 807 809 811 812 813 815 816 817 819 821 822 823 823 824 826 827 828 829 830 831 831 832 833 834 835 836 837 838 839 839 840 840 840 841 841 841 841 842 842 843 843
830 829 829 827 827 826 823 819 818 821 819 818 819 817 817 819 819 812 807 811 813 813 819 822 821 823 825 825 825 824 823 823 821 820 817 815 814 813 812 810 807 806 804 802 800 799 797 796 796 796 797 799 801 802 803 805 806 808 810 811 813 814 815 817 818 819 821 823 823 824 825 826 827 828 829 830 831 832 833 833 834 835 836 837 838 838 838 839 839 840 840 840 841 841 842 842 843
829 829 828 826 826 825 821 819 818 819 817 816 818 817 818 821 818 810 810 814 812 813 821 824 824 826 827 828 827 827 826 826 824 822 820 818 817 817 815 812 810 808 806 804 802 800 799 797 796 796 797 798 800 802 804 805 805 807 808 810 812 813 815 816 817 819 820 821 822 823 824 825 826 827 828 829 830 831 832 833 833 834 835 836 836 837 837 838 839 839 839 840 840 840 841 841 842
829 829 830 827 825 822 817 818 819 818 816 815 817 818 817 820 814 805 811 816 813 817 823 826 828 829 830 830 830 829 828 828 826 824 824 823 821 819 817 815 813 810 808 806 804 802 800 799 798 797 797 798 800 802 804 805 806 807 808 809 811 813 814 816 817 818 819 820 821 822 823 824 825 826 827 828 829 829 830 831 832 833 834 834 835 835 836 837 837 838 838 839 839 839 839 840 840
829 831 833 831 831 825 816 820 821 818 818 815 819 824 817 812 808 805 813 815 812 819 826 829 830 831 832 832 831 831 830 829 828 828 827 825 823 821 819 817 815 812 810 808 805 804 803 802 801 800 799 799 800 802 804 806 807 807 808 808 809 811 813 815 816 818 818 820 820 821 822 823 824 825 826 827 828 829 829 830 831 832 832 833 833 834 835 835 836 837 837 837 838 838 838 838 839
832 834 836 839 840 827 816 821 822 817 819 817 819 828 819 806 805 809 813 812 811 820 829 831 832 833 833 833 833 833 832 832 831 830 829 827 825 823 821 818 816 814 812 809 808 806 806 805 803 803 802 802 802 803 804 806 807 808 808 809 809 810 811 813 815 817 818 819 820 821 821 822 823 824 825 825 826 827 828 829 830 830 831 831 832 833 834 834 835 835 836 836 837 837 837 838 838
836 837 839 845 844 830 819 819 820 817 818 819 819 827 823 808 807 812 813 811 812 822 832 834 834 836 835 835 836 835 835 834 832 831 830 828 826 824 822 820 818 816 814 812 810 809 807 807 806 805 805 805 804 805 806 807 808 808 809 810 810 810 811 812 814 816 817 819 819 820 821 822 822 823 824 824 825 826 826 827 828 829 829 830 831 831 832 833 834 834 835 836 836 836 836 837 837
840 841 839 841 842 838 829 819 818 819 817 819 820 823 823 811 807 813 814 812 814 823 833 836 836 838 838 838 838 837 837 835 833 832 831 830 828 826 824 822 820 818 816 814 812 811 809 809 808 808 808 808 808 808 808 808 809 809 810 811 811 812 812 813 814 815 816 818 819 820 820 821 822 822 823 823 824 825 825 826 827 828 828 829 829 830 831 832 833 833 834 835 835 835 836 836 836
840 844 841 840 841 841 834 821 819 821 819 821 822 823 822 809 806 813 816 816 818 826 835 838 839 840 839 840 839 839 839 837 836 834 833 831 829 828 826 824 822 820 818 816 815 813 812 812 811 810 811 811 811 811 810 811 811 811 812 812 812 813 814 815 815 815 817 818 819 820 821 822 822 822 822 823 823 823 824 825 826 827 827 828 828 829 830 830 831 832 832 833 834 834 835 835 835
831 837 838 839 841 839 836 828 821 820 820 821 823 825 821 811 808 815 820 821 822 830 838 839 840 841 841 841 841 841 841 839 839 837 835 833 831 830 827 826 824 822 820 818 817 816 814 814 814 813 813 813 813 813 813 813 813 813 813 813 814 814 816 816 816 817 818 819 820 821 822 822 823 823 823 823 823 824 824 824 825 826 827 827 828 829 829 830 830 831 832 832 832 833 834 834 835
825 829 833 836 837 836 834 829 823 822 824 824 824 824 821 813 810 817 825 827 829 835 840 840 842 842 842 843 843 843 843 842 841 839 837 835 833 832 829 828 826 824 822 820 818 817 816 816 815 815 815 816 816 815 815 815 814 814 814 814 815 816 817 817 817 818 819 820 822 823 823 823 824 824 825 825 824 824 824 825 826 826 827 827 828 829 829 830 831 831 832 832 832 832 833 833 834
827 830 834 835 836 834 830 826 822 823 826 824 822 824 822 815 814 824 831 830 833 838 839 842 844 844 844 844 844 844 844 844 842 841 839 837 836 834 831 830 828 825 823 821 820 819 819 818 817 817 818 818 817 818 818 817 816 816 816 816 817 818 818 818 819 820 820 822 823 823 824 825 825 825 826 826 826 826 826 826 826 826 827 827 828 829 830 830 831 831 832 832 832 832 833 833 834
830 832 834 835 838 835 828 825 823 824 827 824 823 825 820 812 817 830 834 830 835 839 841 844 845 845 846 845 845 845 845 845 843 842 841 839 838 836 834 833 830 827 825 824 823 822 821 820 820 820 820 820 819 820 820 820 820 819 818 818 819 819 819 820 820 821 822 823 823 824 825 826 826 827 827 827 827 827 827 827 827 827 827 828 828 829 830 830 831 831 832 833 833 833 833 834 834
832 835 837 836 836 834 827 823 824 825 825 823 825 825 816 813 825 835 837 836 841 842 841 844 845 846 847 846 847 846 846 846 844 843 842 841 840 838 837 836 833 831 829 827 826 825 824 822 822 822 822 822 822 822 822 823 823 823 822 821 820 820 821 821 822 823 824 824 824 826 826 827 828 828 828 828 828 828 828 829 829 829 829 828 828 829 829 829 830 830 830 832 833 833 834 834 834
833 834 836 835 834 835 828 822 823 823 825 824 824 825 818 818 829 839 842 842 844 845 844 846 847 847 848 848 848 848 848 847 846 845 843 842 841 840 839 838 836 834 831 830 828 827 826 825 825 824 825 825 825 825 825 826 826 826 825 824 823 822 823 823 822 823 824 825 826 827 828 829 829 830 830 830 830 830 830 830 830 830 830 830 829 829 829 829 829 829 830 831 832 833 833 833 834
832 831 832 831 829 831 828 826 825 823 826 827 824 825 818 813 819 831 842 845 844 846 846 846 848 848 849 849 849 849 850 849 847 846 845 844 842 841 841 839 837 835 833 832 831 830 829 828 827 827 827 827 828 828 828 829 828 828 827 826 825 824 823 823 822 823 825 826 827 828 829 831 831 831 832 831 831 831 831 831 832 832 831 831 830 829 829 829 829 829 830 831 831 832 833 833 833
830 824 824 825 823 825 827 829 829 827 827 829 829 825 816 810 813 827 841 844 845 847 847 847 848 849 849 849 850 850 850 849 848 847 846 845 844 842 841 839 838 837 836 836 834 833 832 831 830 829 829 830 830 830 831 831 831 831 830 828 828 826 825 825 826 827 827 828 829 830 831 832 832 833 833 833 833 832 832 832 832 832 832 832 832 831 830 830 829 830 830 830 831 832 833 833 833
829 821 818 820 822 825 828 829 830 830 828 831 833 827 820 812 810 826 840 841 845 848 847 848 848 849 849 849 850 851 851 850 849 848 847 846 845 843 842 841 841 840 840 839 837 835 834 833 833 832 832 832 832 833 833 833 832 833 832 832 831 830 830 831 832 831 830 831 831 832 833 833 834 834 834 834 834 834 833 833 833 833 833 834 834 833 832 831 831 830 830 830 831 832 832 833 833
824 821 819 818 820 824 827 827 829 830 830 832 829 826 827 817 811 829 837 835 843 848 847 848 848 848 849 850 850 850 851 850 850 849 848 847 846 845 844 844 843 843 842 841 838 837 836 835 835 834 834 834 835 835 835 834 834 835 835 835 835 834 834 835 835 834 834 833 833 833 834 835 835 835 835 836 835 835 835 834 834 834 834 835 835 835 834 834 833 831 831 831 831 831 832 832 832
820 824 825 822 822 825 827 826 829 835 837 833 827 827 831 819 817 836 836 826 831 842 846 847 847 849 849 849 850 850 851 850 850 850 849 848 847 846 846 846 845 844 843 841 840 839 838 838 837 836 837 837 838 838 837 837 837 837 838 837 837 838 838 838 837 837 836 835 835 835 836 836 837 837 837 837 836 836 836 836 836 835 835 836 836 836 836 835 834 833 832 831 831 831 832 832 832
821 828 828 826 828 830 829 828 828 834 837 833 826 827 829 816 814 831 833 819 819 834 846 846 846 849 849 849 850 850 851 850 850 850 849 849 848 848 847 846 846 845 844 843 842 842 841 840 839 838 839 840 841 841 841 841 841 841 841 841 841 842 841 841 839 838 838 838 837 837 837 837 837 838 838 838 838 838 838 837 837 837 837 837 837 837 836 835 835 834 833 832 832 831 831 832 832
824 824 822 824 829 829 832 834 830 831 832 827 820 821 825 819 812 819 825 820 820 830 842 845 847 849 848 849 850 849 850 850 850 850 850 849 848 848 847 846 847 846 845 844 843 843 842 841 840 839 841 842 843 844 843 843 844 844 845 845 845 845 844 843 841 840 840 839 839 839 839 839 838 838 838 838 839 839 839 839 839 839 839 838 838 837 837 836 836 835 835 834 833 832 832 831 832
824 820 819 823 828 829 832 835 834 834 828 824 825 827 829 822 809 809 817 825 830 829 832 839 845 847 847 848 848 849 850 850 850 850 849 849 848 848 848 847 847 847 846 845 845 845 844 843 842 841 843 844 845 846 845 846 846 847 848 848 848 848 847 845 843 843 842 841 841 841 840 840 839 839 839 839 839 840 840 840 841 840 840 840 839 839 838 838 837 836 835 834 833 832 832 831 831
824 821 823 828 834 836 834 834 839 837 828 832 837 833 829 818 804 807 816 826 834 832 830 835 839 842 845 846 846 847 849 849 849 849 848 848 848 848 848 847 847 847 846 846 846 846 845 844 844 843 844 846 846 847 847 848 849 849 851 851 850 850 849 848 846 845 845 843 843 842 841 841 840 840 840 840 840 841 841 841 841 841 841 841 841 840 840 839 838 837 836 835 834 833 832 831 831
824 821 823 828 837 842 838 839 845 837 827 837 842 833 827 811 803 821 830 831 837 835 832 833 835 839 841 843 845 845 847 848 848 848 848 847 847 847 847 847 847 847 847 847 847 846 846 845 845 844 846 847 848 849 849 850 851 851 852 852 852 852 851 850 849 848 847 845 844 843 843 843 842 842 842 842 842 842 842 842 843 843 842 842 841 841 840 839 838 838 837 836 835 834 833 831 831
825 823 823 824 827 831 830 830 832 827 823 834 840 830 816 801 809 834 839 836 838 835 832 833 835 839 840 842 844 844 845 846 846 847 847 847 847 847 847 847 847 847 847 847 847 847 846 846 846 845 847 848 849 850 851 851 852 853 854 854 853 853 853 852 851 850 849 847 846 845 844 844 844 844 844 843 843 843 843 843 843 843 843 842 842 841 840 839 838 838 837 836 835 834 833 832 830
827 830 826 822 818 816 821 827 828 829 828 830 832 821 808 808 826 840 838 836 839 836 835 835 836 840 841 842 843 842 844 845 845 846 845 846 847 846 847 847 847 847 847 847 847 847 847 846 847 847 848 849 850 851 852 853 854 854 854 855 854 854 854 853 852 851 849 847 846 846 845 845 846 846 845 844 843 843 843 843 843 843 843 842 842 841 840 839 838 838 837 836 834 833 832 831 830
826 830 821 821 820 812 819 830 835 838 833 825 822 814 806 811 824 837 838 836 838 839 838 838 838 841 841 841 841 842 843 843 843 844 844 845 845 846 847 847 847 847 847 847 847 847 848 847 848 848 849 850 851 852 853 853 854 855 855 855 855 855 854 853 852 851 849 848 847 846 846 847 847 847 845 843 843 842 842 842 842 842 842 842 841 841 840 839 838 837 836 835 833 832 830 829 828
820 823 815 819 824 818 821 828 833 840 835 824 816 809 805 801 808 832 841 835 837 841 840 840 840 841 840 839 840 841 841 841 842 842 843 844 844 845 846 846 846 847 846 847 847 848 848 848 849 849 850 851 852 852 853 854 855 855 855 856 855 855 854 853 852 851 850 849 848 848 848 848 847 846 844 842 841 841 841 841 841 841 840 840 840 839 839 838 837 836 835 834 832 831 829 828 827
813 815 813 817 820 820 824 827 828 830 828 820 809 804 804 797 800 817 822 823 833 838 840 840 838 839 839 838 838 839 840 840 840 841 842 842 843 843 844 845 846 846 847 847 847 848 848 849 850 850 851 852 853 854 854 855 855 855 856 856 856 855 854 853 852 851 851 850 849 849 849 848 846 844 843 842 841 841 841 840 840 839 839 838 838 837 836 836 835 834 833 831 830 829 827 826 825
813 814 816 816 816 817 820 822 819 817 819 817 808 803 797 791 794 796 794 808 827 833 836 837 834 835 835 833 835 836 836 837 838 839 840 840 841 842 843 844 845 845 847 847 847 848 849 850 851 851 852 853 854 854 855 855 855 855 856 856 855 855 854 853 853 852 851 851 850 849 848 846 845 844 843 842 842 842 841 840 840 839 838 837 836 835 834 833 832 831 830 829 827 826 825 823 822
811 814 817 816 816 818 818 817 813 811 814 812 811 806 791 788 801 796 789 805 820 824 828 830 831 832 831 830 831 831 833 835 836 837 838 838 840 841 842 843 844 845 846 847 847 849 849 850 851 852 853 854 854 855 855 855 856 856 856 855 855 854 854 853 853 852 851 850 849 848 846 845 844 843 843 842 842 842 841 840 839 838 837 836 835 835 833 832 831 829 828 827 825 824 822 820 819
803 806 808 808 811 816 818 817 811 810 811 806 807 805 788 792 812 808 802 811 816 818 822 825 828 828 827 828 829 830 832 833 833 834 835 837 838 839 841 842 844 844 845 847 847 848 849 850 851 852 853 854 854 855 855 855 855 855 855 854 854 853 853 852 851 850 849 848 847 846 845 845 844 843 843 842 841 840 839 839 838 837 836 835 834 833 832 831 829 828 826 825 823 822 819 818 816